Weather Roundup
Issued by NWS Corpus Christi, TX

Home | Current Version | Previous Version | Text Only | Print | Product List | Glossary On
Versions: 1 2 3 4 5 6 7 8 9 10 11 12 13 14 15 16 17 18 19 20 21 22 23 24 25 26 27 28 29 30 31 32 33 34 35 36 37 38 39 40 41 42 43 44 45 46 47 48 49 50
000
ASUS44 KCRP 262210
HRRCRP

SOUTH TEXAS REGIONAL WEATHER ROUNDUP
NATIONAL WEATHER SERVICE CORPUS CHRISTI TX
500 PM CDT SUN MAR 26 2017


TXZ229>244-262300-
...CORPUS CHRISTI AREA OBSERVATIONS...

CITY           SKY/WX    TMP DP  RH WIND       PRES   REMARKS
CORPUS CHRISTI PTSUNNY   82  69  64 SE31G40   29.77F
NAS CORPUS CHR MOSUNNY  N/A N/A N/A SE24G33   29.80F
ROCKPORT       PTSUNNY   79  69  71 SE16G26   29.81F
KINGSVILLE NAS MOSUNNY   84  72  67 SE24G35   29.75F
ALICE          SUNNY     87  69  54 SE24G31   29.74S HX  91
ORANGE GROVE   SUNNY     86  71  60 S24G33    29.75F HX  91
FALFURRIAS     SUNNY     89  62  40 S16       29.73F
$$

...VICTORIA AREA OBSERVATIONS...

CITY           SKY/WX    TMP DP  RH WIND       PRES   REMARKS
VICTORIA       PTSUNNY   80  68  66 S22G28    29.82F
BEEVILLE       CLOUDY    82  69  65 SE22G28   29.78S
PLEASANTON     SUNNY     88  59  37 SE15G21   29.75F
SAN ANTONIO    MOSUNNY   85  58  39 SE20G26   29.77F
$$

...LAREDO AREA OBSERVATIONS...

CITY           SKY/WX    TMP DP  RH WIND       PRES   REMARKS
LAREDO         SUNNY     94  60  32 SE10      29.71F HX  94
COTULLA        SUNNY     94  52  24 SE14      29.71F HX  91
DEL RIO        SUNNY     91  35  13 SE6       29.71F
MCALLEN        MOSUNNY   87  68  52 SE21G31   29.75S HX  90
HEBBRONVILLE   SUNNY     88  58  36 S12G22    29.75F
$$

...OTHER TEXAS OBSERVATIONS...

CITY           SKY/WX    TMP DP  RH WIND       PRES   REMARKS
BROWNSVILLE    PTSUNNY   82  70  65 SE23G32   29.78F
HOUSTON        MOSUNNY   82  62  50 S22G28    29.86S
COL. STATION   MOSUNNY   84  58  40 SE18G24   29.79F
AUSTIN         MOSUNNY   86  58  38 S17G26    29.77F
WACO           PTSUNNY   81  62  52 S21G26    29.75F
FORT WORTH     CLOUDY    82  61  48 S15       29.73F
WICHITA FALLS  PTSUNNY   81  56  42 SW14      29.69F
LUBBOCK        MOSUNNY   78  15   9 W24G37    29.75S
EL PASO        MOSUNNY   74  18  12 NW21G33   29.91F
$$

...MARINE OBSERVATIONS...

STATION/POSITION TIME  SKY/WX   TEMP    WIND        PRES    VSBY  WAVE   SWELL
                                AIR SEA DIR/SP/G                  HT/PER HT/PER
                 (UTC)          (F)     (DEG/KT/KT) (MB)    (MI)  (FT/S) (FT/S)
PORT ARANSAS     2200            73 73  140/ 16/ 18 1009.5F
BUOY 90 E PORT A 2150            74 73  150/ 17/ 23 1010.5R         6/ 5   2/11
BUOY 45 SE BAFFI 2150            74     150/ 17/ 19 1008.8F         6/ 7
BUOY 200 E PT IS 2150            76 77  140/ 16/ 17 1012.3F         4/ 6   2/ 8
BUOY 15 E GALVES 2150            73 73  160/ 14/ 17 1012.0F         3/ 8   2/ 8
$$




USA.gov is the U.S. government's official web portal to all federal, state and local government web resources and services.